DW2802 Ogijares ES current weather conditions

sailwx.info

Wind from 299 at 0 knots gusting 3

Air temperature 23.3° C
Dewpoint 5.7° C

Last reported at 2014-Oct-31 13:44 UTC.
Time now 2014-Oct-31 14:18 UTC

Location: N 37°07' W 003°36'.
View on Google Maps.

See reports from other nearby stations

  
Tides and Currents Weather Stations Pressure Air Temp Water Temp Dewpoint Dewpoint Depression Visibility Wind Speed Wind Dir Waves Ship Positions
date/time (UTC)wind fromknots sea level pressurealtimeterstation pressurevisibilityair tempwater tempwave heightnotes
2014-Oct-31 13:44 299 0 gusting 3 23.3
2014-Oct-31 13:29 081 1 gusting 6 23.3
2014-Oct-31 13:14 044 0 gusting 3 23.9
2014-Oct-31 12:59 033 23.3
2014-Oct-31 12:44 074 22.2
2014-Oct-31 12:29 052 22.2
2014-Oct-31 12:14 329 21.7
2014-Oct-31 11:59 241 21.1
2014-Oct-31 11:44 301 21.1
2014-Oct-31 11:29 360 21.1
2014-Oct-31 11:14 005 20.6
2014-Oct-31 10:59 072 20.6
2014-Oct-31 10:44 096 20.6
2014-Oct-31 10:29 110 20.0
2014-Oct-31 10:14 110 18.9
2014-Oct-31 09:59 112 18.3
2014-Oct-31 09:44 115 18.3
2014-Oct-31 09:29 115 18.3
2014-Oct-31 09:14 115 17.2
2014-Oct-31 08:58 115 17.8
2014-Oct-31 08:43 115 17.2
2014-Oct-31 08:28 115 16.1
2014-Oct-31 08:13 163 15.0
2014-Oct-31 07:58 163 13.3
2014-Oct-31 07:43 163 12.8
2014-Oct-31 07:28 163 12.2
2014-Oct-31 07:13 163 11.7
2014-Oct-31 06:58 163 11.1
2014-Oct-31 06:43 163 11.1
2014-Oct-31 06:28 163 11.1
2014-Oct-31 06:13 163 11.1
2014-Oct-31 05:58 163 11.1
2014-Oct-31 05:43 163 11.1
2014-Oct-31 05:28 163 11.7
2014-Oct-31 05:13 163 11.7
2014-Oct-31 04:58 163 11.1
2014-Oct-31 04:43 163 11.1
2014-Oct-31 04:28 163 11.7
2014-Oct-31 04:13 163 11.7
2014-Oct-31 03:58 163 11.7
2014-Oct-31 03:43 163 11.7
2014-Oct-31 03:28 163 11.7
2014-Oct-31 03:13 163 11.7
2014-Oct-31 02:58 162 11.7
2014-Oct-31 02:43 162 12.2
2014-Oct-31 02:28 162 12.8
2014-Oct-31 02:13 162 12.2
2014-Oct-31 01:58 163 12.2
2014-Oct-31 01:43 163 12.8
2014-Oct-31 01:28 163 12.8
2014-Oct-31 01:13 163 13.3
2014-Oct-31 00:57 163 13.3
2014-Oct-31 00:42 163 13.3
2014-Oct-31 00:27 163 13.9
2014-Oct-31 00:12 163 13.3
2014-Oct-30 23:57 163 13.9
2014-Oct-30 23:42 163 13.9
2014-Oct-30 23:27 163 1 gusting 4 13.9
2014-Oct-30 23:12 165 13.9
2014-Oct-30 22:57 165 13.9
2014-Oct-30 22:42 165 13.9
2014-Oct-30 22:27 165 13.9
2014-Oct-30 22:12 165 13.9
2014-Oct-30 21:57 169 13.9
2014-Oct-30 21:42 169 14.4
2014-Oct-30 21:27 169 14.4
2014-Oct-30 21:12 169 15.0
2014-Oct-30 20:57 169 15.6
2014-Oct-30 20:42 169 15.6
2014-Oct-30 20:27 169 15.6
2014-Oct-30 20:12 169 15.6
2014-Oct-30 19:57 167 15.6
2014-Oct-30 19:42 167 16.1
2014-Oct-30 19:27 167 16.7
2014-Oct-30 19:12 167 2 gusting 4 16.7
2014-Oct-30 18:57 167 2 gusting 4 17.2
2014-Oct-30 18:42 167 2 gusting 4 17.8
2014-Oct-30 18:27 167 18.9
2014-Oct-30 18:12 171 18.9
2014-Oct-30 17:57 167 4 gusting 7 19.4
2014-Oct-30 17:42 159 4 gusting 7 20.0
2014-Oct-30 17:27 155 4 gusting 8 20.0
2014-Oct-30 17:12 170 4 gusting 7 20.6
2014-Oct-30 16:57 178 2 gusting 6 21.1
2014-Oct-30 16:42 188 4 gusting 9 21.7
2014-Oct-30 16:27 200 2 gusting 8 22.2
2014-Oct-30 16:12 207 2 gusting 9 22.8
2014-Oct-30 15:57 207 5 gusting 9 23.3
2014-Oct-30 15:42 197 4 gusting 7 23.9
2014-Oct-30 15:27 193 1 gusting 6 23.9
2014-Oct-30 15:12 232 4 gusting 7 23.9
2014-Oct-30 14:57 223 4 gusting 8 23.9
2014-Oct-30 14:42 235 5 gusting 8 23.9
2014-Oct-30 14:27 198 3 gusting 7 25.0
2014-Oct-30 14:12 346 25.0
2014-Oct-30 13:57 346 23.9
2014-Oct-30 13:42 244 23.9
2014-Oct-30 13:27 272 23.9
2014-Oct-30 13:12 049 23.9
2014-Oct-30 12:57 015 24.4
2014-Oct-30 12:42 312 23.3
2014-Oct-30 12:27 315 1 gusting 4 23.3
2014-Oct-30 12:12 355 0 gusting 5 23.3
2014-Oct-30 11:57 360 2 gusting 6 22.8
2014-Oct-30 11:42 351 22.2
2014-Oct-30 11:27 347 0 gusting 3 21.7
2014-Oct-30 11:11 005 22.2
2014-Oct-30 10:56 109 21.7
2014-Oct-30 10:41 128 20.6
2014-Oct-30 10:26 128 20.6
2014-Oct-30 10:11 129 20.0
2014-Oct-30 09:56 131 18.9
2014-Oct-30 09:41 167 18.3
2014-Oct-30 09:26 166 17.8
2014-Oct-30 09:11 166 17.2
2014-Oct-30 08:56 166 17.2
2014-Oct-30 08:41 166 17.8
2014-Oct-30 08:26 166 16.7
2014-Oct-30 08:11 163 15.6
2014-Oct-30 07:56 163 14.4
2014-Oct-30 07:41 163 13.3
2014-Oct-30 07:25 163 12.2
2014-Oct-30 07:10 163 11.7
2014-Oct-30 06:55 163 11.7
2014-Oct-30 06:40 163 11.7
2014-Oct-30 06:25 163 11.7
2014-Oct-30 06:10 163 11.7
2014-Oct-30 05:55 163 11.7
2014-Oct-30 05:40 163 12.2
2014-Oct-30 05:25 163 12.2
2014-Oct-30 05:10 135 12.2
2014-Oct-30 04:55 135 11.7
2014-Oct-30 04:40 135 12.2
2014-Oct-30 04:25 135 12.2
2014-Oct-30 04:10 135 12.2
2014-Oct-30 03:55 135 12.2
2014-Oct-30 03:40 135 12.2
2014-Oct-30 03:25 135 12.8
2014-Oct-30 03:10 135 12.8
2014-Oct-30 02:55 135 12.8
2014-Oct-30 02:40 135 13.3
2014-Oct-30 02:25 135 13.3
2014-Oct-30 02:10 135 13.3
2014-Oct-30 01:55 135 13.3
2014-Oct-30 01:40 135 13.9
2014-Oct-30 01:25 135 13.9
2014-Oct-30 01:10 135 13.9
2014-Oct-30 00:55 135 13.9
2014-Oct-30 00:40 134 13.3
2014-Oct-30 00:25 134 13.9
2014-Oct-30 00:10 134 13.9
2014-Oct-29 23:55 134 13.9
2014-Oct-29 23:40 134 13.9
2014-Oct-29 23:25 134 14.4
2014-Oct-29 23:10 134 13.9
2014-Oct-29 22:55 134 14.4
2014-Oct-29 22:40 134 14.4
2014-Oct-29 22:26 134 14.4
2014-Oct-29 22:10 134 14.4
2014-Oct-29 21:55 140 15.0
2014-Oct-29 21:39 140 15.6
2014-Oct-29 21:24 140 15.6
2014-Oct-29 21:09 139 15.6
2014-Oct-29 20:54 139 15.6
2014-Oct-29 20:39 139 16.1
2014-Oct-29 20:24 139 16.1
2014-Oct-29 20:09 139 16.1
2014-Oct-29 19:54 139 16.7
2014-Oct-29 19:41 139 16.7
2014-Oct-29 19:24 139 17.2
2014-Oct-29 19:09 139 17.8
2014-Oct-29 18:54 139 18.3
2014-Oct-29 18:39 139 18.3
2014-Oct-29 18:24 127 0 gusting 8 18.9
2014-Oct-29 18:09 138 5 gusting 9 18.9
2014-Oct-29 17:54 171 2 gusting 7 19.4
2014-Oct-29 17:39 154 4 gusting 7 19.4
2014-Oct-29 17:24 167 3 gusting 6 20.0
2014-Oct-29 17:09 150 3 gusting 6 21.1
2014-Oct-29 16:54 215 21.7
2014-Oct-29 16:39 215 1 gusting 4 22.2
2014-Oct-29 16:24 215 0 gusting 5 22.8
2014-Oct-29 16:09 217 0 gusting 6 22.8
2014-Oct-29 15:54 170 0 gusting 6 23.3
2014-Oct-29 15:39 189 0 gusting 8 23.3
2014-Oct-29 15:24 232 4 gusting 7 23.3
2014-Oct-29 15:09 248 4 gusting 6 23.3
2014-Oct-29 14:54 225 3 gusting 5 23.3
2014-Oct-29 14:39 168 2 gusting 7 23.3
2014-Oct-29 14:24 179 4 gusting 6 23.3
2014-Oct-29 14:09 217 0 gusting 6 23.3